STARLINK-30367, 57791

Orbit data source: Space-Track

STARLINK-30367, 57791 is a payload satellite owned by SpaceX/Seattle (US) in LEO that was launched on Mon, 04 Sep 2023 UTC via an FALCON 9 launch vehicle from the Air Force Eastern Test Range (AFETR). Payload-class satellites include a variety of spacecraft equipped with specific instruments for various scientific and technological missions. These include communications satellites like Starlink; space stations such as the ISS; scientific satellites like the Hubble; Earth observation satellites from companies like Planet Labs, Umbra, and HawkEye 360; GPS; miniature CubeSats for education and research; and military/defense satellites.

Loading next visibility...
Identifier
57791, 2023-134W
Orbit
LEO
Country
Flag of USUS
Related business
Manufacturer
SpaceX/Seattle
Mission
Operational Commercial Communications
Bus & Motor
STARLINK V2M, Unknown motor
Mass
730 kg wet, ~700 kg dry
Launch date (UTC)
2023-09-04 (2 years ago)
Launch vehicle
FALCON 9
Launch site
Air Force Eastern Test Range (AFETR)
Object type
Payload
Rocket body
Debris
Shape & HBR
Box + 2 Pan, 17.7 m
Radar Cross Section
33.884 m², Large (>1 m²)

Expand to show TLE details & history
Last TLE update: 19 hours ago

TLE from 19 hours ago
0 STARLINK-30367
1 57791U 23134W   25346.59886883 -.00000130  00000-0  54622-5 0  9996
2 57791  43.0037 310.4599 0000371  29.2608 330.8255 15.02537122126370
Epoch: 2025-12-12T14:22Z
TLE epoch observation values (Epoch: 2025-12-12T14:22:22.266Z)
Latitude
-0.00004°
Longitude
13.32889°
Altitude
558.63 km
Speed
7.584 km/s
True Right ascension
20h 41m 50s
True Declination
0° 00' 00"
Sunlit
Object was in daylight at epoch
Visualization orbit readout
Latitude
Unknown
Longitude
Unknown
Altitude
Unknown
Speed
Unknown
Apparent Right ascension
Unknown
Apparent Declination
Unknown
Sunlit
N/A
Visualization observer readout
Local Sidereal Time
07:27:33
Azimuth
Unknown
Elevation
Unknown
Doppler factor
Unknown
Orbital elements
Apogee altitude
561.257 km
Perigee altitude
560.742 km
Semi-major axis
6,939.136 km
Eccentricity
0.00004
Inclination
43.0037°
RAAN
310.4599°
Arg. of periapsis
29.2608°
True anomaly
330.82343°
Mean anomaly
330.8255°
Eccentric anomaly
330.82446°
Mean motion
3.75478 °/min
Orbital period
95.88 mins
BSTAR
0.0000054622
Loading maneuver chart data...
Computing Atmospheric mass density...
Loading historical data...
Loading historical data...
Loading historical data...
Loading historical data...
Loading historical data...
Loading historical data...
Loading historical data...

Documentation

Showing up to 5 results
|